Terminal Aerodrome Forecast
Issued by NWS Portland, OR

Home | Current Version | Previous Version | Text Only | Print | Product List | Glossary On
Versions: 1 2 3 4 5 6 7 8 9 10 11 12 13 14 15 16 17 18 19 20 21 22 23 24 25 26 27 28 29 30 31 32 33 34 35 36 37 38
000
FTUS46 KPQR 310342 AAA
TAFAST
TAF AMD
KAST 310342Z 3104/3124 33007KT P6SM SKC
     FM310600 00000KT 3SM BR BKN002
     FM310800 00000KT 1/2SM FG BKN002
     FM311000 00000KT 1/4SM FG VV002
     FM311800 00000KT 4SM BR BKN003
     FM312000 08006KT P6SM SCT007=

USA.gov is the U.S. government's official web portal to all federal, state and local government web resources and services.